#timestamp,LO_Frequency,Hit,StdDev 
1625677215.3,286046998.3,N
1625677235.2,286046998.8,N
1625677255.0,286046998.8,N
1625677255.9,286046998.8,N
1625677275.8,286046999.4,N
1625677295.6,286046998.2,N
1625677315.4,286047000.2,N
1625677335.3,286047000.2,N
1625677355.1,286047000.4,N
1625677375.9,286047000.4,N
1625677395.7,286047000.3,N
1625677415.5,286047000.8,N
1625677435.4,286046998.9,N
1625677455.2,286047001.2,N
1625677475.0,286046998.1,N
1625677475.9,286046998.1,N
1625677495.8,286047000.3,N
1625677515.6,286046998.5,N
1625677535.5,286047001.2,N
1625677555.3,286047000.8,N
1625677575.1,286047001.2,N
1625677595.9,286046998.6,N
1625677615.7,286046998.1,N
1625677635.5,286046998.7,N
1625677655.4,286046998.3,N
1625677675.2,286047000.2,N
1625677695.0,286047000.1,N
1625677695.9,286047000.1,N
1625677715.8,286047002.3,N
1625677735.6,286046999.9,N
1625677755.5,286047002.0,N
1625677775.3,286047002.2,N
1625677795.1,286047004.2,Y
1625677815.9,286047001.9,P
1625677835.7,286047002.5,N
1625677855.6,286047001.8,N
1625677875.4,286047002.4,N
1625677895.2,286047001.4,N
1625677915.1,286047001.9,N
1625677916.0,286047001.9,N
1625677935.8,286047002.3,N
1625677955.6,286046999.9,N
1625677975.5,286047002.8,Y
1625677995.3,286046998.1,P
1625678015.2,286047001.0,N
1625678035.9,286047000.1,N
1625678055.7,286046999.7,N
1625678075.6,286047000.1,N
1625678095.4,286047002.8,N
1625678115.2,286047002.6,N
1625678135.1,286047002.8,N
1625678136.0,286047002.8,N
1625678155.8,286046999.8,N
1625678175.7,286047000.9,N
1625678195.5,286047000.7,N
1625678215.3,286047000.1,N
1625678235.2,286046999.8,N
1625678255.0,286047000.4,N
1625678255.9,286047000.4,N
1625678275.7,286047000.1,N
1625678295.6,286047002.4,N
1625678315.4,286047001.8,N
1625678335.3,286047003.9,Y
1625678355.1,286047003.7,P
1625678356.0,286047003.7,N
1625678375.8,286047005.6,P
1625678395.7,286047004.5,N
1625678415.5,286047007.6,Y
1625678435.4,286047004.2,P
1625678455.2,286047003.1,P
1625678475.0,286047003.6,P
1625678475.9,286047003.6,Y
1625678495.8,286046998.9,P
1625678515.6,286046998.4,N
1625678535.4,286046999.4,N
1625678555.3,286046998.6,N
1625678575.1,286047000.3,N
1625678595.9,286047000.8,N
1625678615.7,286047001.0,N
1625678635.5,286046998.4,N
1625678655.4,286046998.9,N
1625678675.2,286046999.2,N
1625678695.0,286046997.0,N
1625678696.0,286046997.0,N
1625678715.8,286046998.2,N
1625678735.6,286046999.3,N
1625678755.5,286046997.0,N
1625678775.3,286046997.5,N
1625678795.1,286046996.9,N
1625678815.9,286046996.6,N
1625678835.7,286046999.5,N
1625678855.6,286046997.4,N
1625678875.4,286046997.7,N
1625678895.2,286046997.3,N
1625678915.1,286046996.9,N
1625678916.0,286046996.9,N
1625678935.8,286046999.1,N
1625678955.6,286046996.6,N
1625678975.5,286046997.2,N
1625678995.3,286046997.6,N
1625679015.2,286046995.2,Y
1625679035.9,286046995.1,P
1625679055.7,286046995.0,P
1625679075.6,286046995.2,P
1625679095.4,286046993.9,Y
1625679115.2,286046996.8,P
1625679135.1,286046996.8,P
1625679136.0,286046996.8,P
1625679155.8,286046997.3,Y
1625679175.7,286046998.1,P
1625679195.5,286046996.5,P
1625679215.3,286046999.4,N
1625679235.2,286046999.5,N
1625679255.0,286046998.4,N
1625679255.9,286046998.4,N
1625679275.8,286046998.4,N
1625679295.6,286046999.9,N
1625679315.4,286047000.0,N
1625679335.3,286046999.2,N
1625679355.1,286046999.4,N
1625679375.8,286046999.3,N
1625679395.7,286046999.1,N
1625679415.5,286046999.2,N
1625679435.4,286046996.8,Y
1625679455.2,286047001.1,P
1625679475.0,286047001.2,N
1625679475.9,286047001.2,N
1625679495.8,286046998.1,N
1625679515.6,286047000.9,N
1625679535.5,286047000.7,N
1625679555.3,286046998.3,N
1625679575.1,286047001.1,N
1625679595.9,286046998.3,N
1625679615.7,286047001.1,N
1625679635.5,286047000.6,N
1625679655.4,286046998.9,N
1625679675.2,286046998.1,N
1625679695.1,286046998.9,N
1625679696.0,286046998.9,N
1625679715.8,286046999.5,N
1625679735.6,286046998.6,N
1625679755.5,286046998.2,N
1625679775.3,286046998.2,N
1625679795.1,286046998.9,N
1625679815.9,286046998.8,N
1625679835.7,286046998.4,N
1625679855.6,286046999.1,N
1625679875.4,286046996.5,Y
1625679895.2,286046998.3,P
1625679915.1,286047002.6,P
1625679916.0,286047002.6,N
1625679935.8,286047000.2,N
1625679955.6,286047000.5,N
1625679975.5,286047000.6,N
1625679995.3,286047001.0,N
1625680015.2,286047000.7,N
1625680035.9,286047000.1,N
1625680055.7,286047001.5,N
1625680075.6,286047001.3,N
1625680095.4,286047001.6,N
1625680115.2,286047001.8,N
1625680135.1,286047001.6,N
1625680136.0,286047001.6,N
1625680155.8,286047002.1,N
1625680175.7,286047002.1,N
1625680195.5,286046999.7,N
1625680215.3,286047002.4,N
1625680235.2,286047002.0,N
1625680255.0,286047002.6,N
1625680255.9,286047002.6,N
1625680275.7,286047002.1,N
1625680295.6,286047002.2,N
1625680315.4,286047001.3,N
1625680335.3,286047001.4,N
1625680355.1,286047002.5,N
1625680356.0,286047002.5,N
1625680375.8,286047002.6,N
1625680395.7,286047001.6,N
1625680415.5,286047004.3,Y
1625680435.4,286047002.3,P
1625680455.2,286047001.5,P
1625680475.0,286047004.3,P
1625680475.9,286047004.3,Y
1625680495.8,286046998.9,P
1625680515.6,286046999.2,N
1625680535.5,286046998.4,N
1625680555.3,286046998.3,N
1625680575.1,286046999.4,N
1625680595.9,286046999.4,N
1625680615.7,286046999.0,N
1625680635.6,286046998.8,N
1625680655.4,286046998.2,N
1625680675.2,286046998.2,N
1625680695.1,286047001.1,N
1625680696.0,286047001.1,N
1625680715.8,286047001.1,N
1625680735.6,286047000.8,N
1625680755.5,286046998.4,N
1625680775.3,286046999.6,N
1625680795.1,286047001.1,N
